Regional Weather Roundup
Issued by NWS Goodland, KS

Home | Current Version | Previous Version | Graphics & Text | Print | Product List | Glossary On
Versions: 1 2 3 4 5 6 7 8 9 10 11 12 13 14 15 16 17 18 19 20 21 22 23 24 25 26 27 28 29 30 31 32 33 34 35 36 37 38 39 40 41 42 43 44 45 46 47 48 49 50
000
ASUS43 KGLD 030459
RWRGLD

GOODLAND FORECAST AREA HOURLY WEATHER ROUNDUP
NATIONAL WEATHER SERVICE GOODLAND KS
1000 PM MST FRI DEC 02 2016

...OFFICIAL OBSERVATIONS...

CITY           SKY/WX    TMP DP  RH WIND       PRES   REMARKS
GOODLAND KS    NOT AVBL
HILL CITY KS   NOT AVBL
IMPERIAL NEB   CLOUDY    25  20  81 CALM      30.25R
MCCOOK NEB     CLOUDY    27  20  75 SW5       30.29R
AKRON CO       CLOUDY    26  20  77 S8        30.19R
BURLINGTON CO  CLOUDY    30  17  58 S10       30.25R
LIMON CO       CLOUDY    16  14  92 S3        30.19S
$$

...UNOFFICIAL OBSERVATIONS...

CITY           SKY/WX    TMP DP  RH WIND       PRES   REMARKS
COLBY KS       CLOUDY    34  23  64 SE7       30.29S
NORTON KS      MOCLDY    28  18  64 CALM      30.29S
SHARON SPRINGS   N/A     35  17  47 CALM        N/A
KIT CARSON CO    N/A     27  17  64 CALM        N/A
YUMA CO        CLOUDY    25  19  80 SW5       30.21S
$$




USA.gov is the U.S. government's official web portal to all federal, state and local government web resources and services.